Preview of NWS' New Version of Forecast
This preview is not operational and should not be used for support decisions.

Regional Weather Roundup (RWR)

Issued by National Weather Service (NWS)

                            
000
ASCA42 TJSJ 231510
RWRPR 
PUERTO RICO/U.S. VIRGIN ISLANDS HOURLY WEATHER ROUNDUP
NATIONAL WEATHER SERVICE SAN JUAN PR
1100 AM AST TUE APR 23 2019

PRZ001>002-007>008-010-231600-
PUERTO RICO
  
CITY           SKY/WX    TMP DP  RH WIND       PRES   REMARKS
SAN JUAN LMM   MOSUNNY   84  68  58 E17       29.98F                  
AGUADILLA      SUNNY     81  66  61 NE13      29.99F                  
CEIBA          MOSUNNY   84  66  54 MISG      30.00F                  
$$

VIZ001>002-231600-
U.S. VIRGIN ISLANDS
  
CITY           SKY/WX    TMP DP  RH WIND       PRES   REMARKS
CHARLOTTE AMA  CLOUDY    82  63  51 E9        29.98F                  
CHRISTIANSTED  PTSUNNY   82  66  57 SE13      29.99F                  
$$

HOURLY WEATHER ROUNDUP FOR THE NEWS MEDIA
  
CITY           SKY/WX    TMP DP  RH WIND       PRES   REMARKS
ORLANDO        FAIR      76  52  43 CALM      30.16S                  
NEW YORK       FAIR      67  52  58 SW7       29.98F                  
NEWARK         FAIR      70  49  47 W6        29.98F                  
CHICAGO        CLOUDY    50  43  77 NW12      30.01R                  
HARTFORD       CLOUDY    52  49  89 VRB6G18   29.94R                  
BOSTON         CLOUDY    54  48  80 N9        29.97S                  
DALLAS         PTSUNNY   70  63  78 SE10      30.03S                  
PHILADELPHIA   FAIR      72  42  34 NW8       30.00F                  
LOS ANGELES    MOSUNNY   61  57  87 CALM      29.99R                  
WASHINGTON DC  PTSUNNY   72  44  36 S5        30.03F